K0VXP-1 Weather Reports


Display with metric or nautical units.
time (UTC)temp
F
wind
direction
speed
MPH
gust
MPH
rain 1hr
in
rain 24hr
in
rain mn
in
humidity
%
barometer
mb
20260506200031 37 294 7.0 14.0 0.00 0.19 0.19 91 1019.4
20260506194536 34 71 5.0 10.0 0.01 0.19 0.19 92 1019.1
20260506193032 32 60 6.0 10.0 0.03 0.19 0.19 93 1019.2
20260506191532 32 314 6.0 11.0 0.07 0.19 0.19 93 1019.4
20260506190031 34 325 7.0 13.0 0.09 0.19 0.19 93 1019.1
20260506184529 35 5 9.0 15.0 0.08 0.18 0.18 93 1018.7
20260506183030 36 5 9.0 17.0 0.06 0.16 0.16 94 1018.7
20260506181532 33 319 9.0 14.0 0.05 0.12 0.12 93 1018.4
20260506180038 31 267 6.0 12.0 0.05 0.10 0.10 93 1018.2
20260506174531 31 308 6.0 10.0 0.05 0.10 0.10 93 1018.3
20260506173034 32 318 8.0 15.0 0.08 0.10 0.10 93 1018.0
20260506171532 32 49 3.0 9.0 0.06 0.07 0.07 93 1017.6
20260506170032 30 42 9.0 15.0 0.05 0.05 0.05 92 1017.4
20260506164532 32 301 8.0 14.0 0.04 0.04 0.04 92 1017.0
20260506163052 33 263 8.0 14.0 0.02 0.02 0.02 93 1016.6
20260506161533 32 246 7.0 12.0 0.01 0.01 0.01 93 1016.7
20260506160032 31 277 5.0 8.0 0.00 0.00 0.00 93 1016.5
20260506154539 30 248 4.0 8.0 0.00 0.00 0.00 92 1016.4
20260506153030 29 239 6.0 10.0 0.00 0.00 0.00 92 1016.1
20260506151530 30 289 4.0 10.0 0.00 0.00 0.00 92 1015.9
20260506150030 30 273 3.0 8.0 0.00 0.00 0.00 92 1015.6
20260506144532 30 257 3.0 6.0 0.00 0.00 0.00 92 1015.6
20260506143043 30 218 2.0 5.0 0.00 0.00 0.00 91 1015.4
20260506141532 30 238 2.0 4.0 0.00 0.00 0.00 91 1014.8
20260506140039 30 184 1.0 4.0 0.00 0.00 0.00 91 1015.0
20260506134530 30 213 1.0 4.0 0.00 0.00 0.00 90 1015.0
20260506133032 30 262 2.0 4.0 0.00 0.00 0.00 90 1015.0
20260506131530 31 263 4.0 11.0 0.00 0.00 0.00 90 1014.6
20260506130030 31 269 6.0 10.0 0.00 0.00 0.00 89 1014.0
20260506124529 32 228 2.0 8.0 0.00 0.01 0.00 88 1013.4
20260506123035 32 326 4.0 10.0 0.00 0.01 0.00 87 1013.3
20260506121538 34 304 7.0 12.0 0.00 0.01 0.00 85 1013.0
20260506120032 34 300 3.0 6.0 0.00 0.01 0.00 84 1012.6
20260506114538 35 348 2.0 9.0 0.00 0.01 0.00 84 1012.3
20260506113032 35 293 5.0 10.0 0.00 0.01 0.00 83 1012.4
20260506111536 35 306 4.0 9.0 0.00 0.01 0.00 84 1012.3
20260506110030 34 263 3.0 7.0 0.00 0.01 0.00 84 1012.7
20260506104533 34 300 1.0 4.0 0.00 0.01 0.00 84 1012.7
20260506103030 34 298 2.0 4.0 0.00 0.01 0.00 83 1012.5
20260506101533 34 290 2.0 5.0 0.00 0.01 0.00 83 1012.5
20260506100031 34 274 2.0 7.0 0.00 0.01 0.00 83 1012.8
20260506094535 34 0 1.0 4.0 0.00 0.01 0.00 82 1012.3
20260506093031 35 355 2.0 5.0 0.00 0.01 0.00 82 1012.3
20260506091530 35 336 1.0 6.0 0.00 0.01 0.00 81 1012.2
20260506090032 36 317 4.0 10.0 0.00 0.01 0.00 81 1012.6
20260506084532 36 308 2.0 8.0 0.00 0.01 0.00 81 1012.8
20260506083029 36 328 3.0 7.0 0.00 0.01 0.00 80 1012.9
20260506081531 36 280 5.0 8.0 0.00 0.01 0.00 80 1012.8
20260506073038 36 0 0.0 3.0 0.00 0.01 0.00 82 1012.8
20260506071532 36 300 4.0 8.0 0.00 0.01 0.00 83 1013.2
20260506061534 37 304 2.0 3.0 0.00 0.06 0.00 81 1013.3
20260506044539 39 314 1.0 7.0 0.00 0.17 0.06 76 1013.0
20260506043032 40 242 6.0 11.0 0.00 0.17 0.06 75 1012.9
20260506041532 40 265 5.0 9.0 0.00 0.17 0.06 74 1013.0
20260506040050 40 283 8.0 15.0 0.00 0.17 0.06 74 1012.8
20260506034534 39 292 4.0 8.0 0.00 0.28 0.06 73 1012.7
20260506033032 40 0 0.0 5.0 0.00 0.28 0.06 72 1012.4
20260506031544 40 296 3.0 5.0 0.00 0.28 0.06 72 1012.3
20260506030031 40 246 3.0 5.0 0.00 0.28 0.06 71 1012.0
20260506024529 41 259 6.0 11.0 0.00 0.39 0.06 70 1011.6
20260506023030 41 224 8.0 13.0 0.00 0.39 0.06 69 1011.4
20260506021530 42 218 8.0 15.0 0.00 0.39 0.06 68 1011.2
20260506020032 43 241 9.0 15.0 0.00 0.39 0.06 66 1011.1
20260506014532 43 269 9.0 18.0 0.00 0.39 0.06 65 1010.8
20260506013032 44 307 10.0 20.0 0.00 0.39 0.06 63 1010.4
20260506011535 46 241 11.0 18.0 0.00 0.39 0.06 60 1010.1
20260506010029 48 286 13.0 24.0 0.00 0.39 0.06 57 1009.9
20260506004530 47 279 12.0 24.0 0.00 0.42 0.06 57 1009.8
20260506003030 49 263 10.0 24.0 0.00 0.42 0.06 56 1009.4
20260506001532 50 266 12.0 23.0 0.00 0.42 0.06 53 1009.4
20260506000032 52 297 12.0 20.0 0.00 0.42 0.06 52 1009.1
20260505234534 50 263 6.0 11.0 0.00 0.67 0.06 54 1009.3
20260505233031 49 262 3.0 10.0 0.00 0.67 0.06 59 1009.1
20260505231544 49 128 7.0 14.0 0.00 0.67 0.06 58 1009.1
20260505230033 50 189 8.0 16.0 0.00 0.67 0.06 57 1009.1
20260505224532 49 219 6.0 14.0 0.00 0.67 0.06 53 1009.3
20260505223029 50 263 8.0 17.0 0.00 0.67 0.06 53 1009.4
20260505221532 52 226 7.0 20.0 0.00 0.67 0.06 52 1009.3
20260505220038 53 234 8.0 20.0 0.00 0.67 0.06 54 1009.5
20260505214535 53 240 12.0 18.0 0.00 0.67 0.06 55 1009.5
20260505213028 52 254 11.0 21.0 0.00 0.67 0.06 56 1009.7
20260505211528 51 281 11.0 20.0 0.00 0.67 0.06 56 1009.6
20260505210032 50 257 19.0 28.0 0.00 0.67 0.06 50 1009.5
20260505204534 50 255 13.0 23.0 0.00 0.76 0.06 52 1009.3
20260505203033 50 258 9.0 24.0 0.00 0.76 0.06 55 1009.4
20260505201533 50 240 14.0 21.0 0.00 0.76 0.06 58 1009.3